Find Starlink 33643

NORAD ID: 63381 Int'l Des: 2025-063 Owner: SPXS Country: US Constellation: starlink operational
LEOCIRCULAR

当前视图

正在加载3D地球...

About Starlink 33643

Starlink 33643 (NORAD 63381) is a starlink constellation satellite (v2 mini) launched Mar 26, 2025 by SPXS of US. It operates in LEO, CIRCULAR orbit with a mass of 575.00 kg.

即将过境

Passes for default location (London). Set your location on the main map for personalized predictions.

高度历史

Loading altitude history...

两行轨道根数

1 63381U 25063U 26248.56427769 .00010798 00000-0 33024-3 0 9995
2 63381 53.1577 295.2221 0001119 90.1534 269.9597 15.34399743 82328
Epoch: Sep 5, 2026 • Age: 26 hours

当前状态

高度 481.7 km
远地点 / 近地点 N/A
速度 7.62 km/s
星下点 -52.70°S, 33.09°W
发射日期 Mar 26, 2025
运行时间 1.4 years
类型 internet

技术详情

分类 Payload
质量 575.00 kg
干质量 530.00 kg
总质量 575.00 kg
长度 0.30 m
直径 4.10 m
跨度 29.00 m
形状 Box + pan
制造商 SPXS
平台类型 Starlink V2MO
阶段状态 In Orbit
所有者/国家 SPXS/US

Most Searched